User: anonymous   Login
Location: ????????
(55.6189°N, 38.3031°E)
Time: 21:15:54
(UTC+00:00)
Language:

SL-4 R/B - Orbit

View from above orbital plane
View from above orbital plane
View from above satellite
View from above satellite

Ground track
Ground track

The orbit data is extracted from the following two-line orbital elements,

1 39679U 14021B   20020.57161443 -.00000093 +00000-0 +14051-4 0  9995
2 39679 051.6165 078.2632 0172727 149.7878 211.3189 15.06281763316585
Epoch (UTC): 20 January 2020 13:43:07
Eccentricity: 0.0172727
inclination: 51.6165°
perigee height: 428 km
apogee height: 667 km
right ascension of ascending node: 78.2632°
argument of perigee: 149.7878°
revolutions per day: 15.06281763
mean anomaly at epoch: 211.3189°
orbit number at epoch: 31658

The dashed part of the orbit path shows where the satellite is in the earth's shadow,  

DLR